Regional Weather Roundup
Issued by NWS Portland, ME

Current Version | Previous Version | Text Only | Print | Product List | Glossary Off
Versions: 1 2 3 4 5 6 7 8 9 10 11 12 13 14 15 16 17 18 19 20 21 22 23 24 25 26 27 28 29 30 31 32 33 34 35 36 37 38 39 40 41 42 43 44 45 46 47 48 49 50

000
ASUS41 KGYX 211305
RWRGYX
WEATHER ROUNDUP FOR MAINE AND NEW HAMPSHIRE
NATIONAL WEATHER SERVICE GRAY ME
900 AM EDT TUE AUG 21 2018

MEZ002-005-006-010-012-015-018-020-021-024-026-027-029-211400-
MAINE

CITY           SKY/WX    TMP DP  RH WIND       PRES   REMARKS
PORTLAND       PTSUNNY   63  61  93 CALM      30.17S FOG
SANFORD        FAIR      64  60  87 CALM      30.18R
BAR HARBOR     FAIR      64  59  83 CALM      30.18R
WISCASSET      FAIR      67  59  75 CALM      30.18S
ROCKLAND       FAIR      65  59  81 NE3       30.17S
FRYEBURG       FOG       58  58 100 CALM      30.19S VSB 1/2
LEWISTONAUBURN   N/A     61  58  90 N5        30.18S
AUGUSTA        FAIR      64  60  87 CALM      30.18S
WATERVILLE     FAIR      60  60 100 CALM      30.16R
BANGOR         FAIR      68  58  70 CALM      30.18R
GREENVILLE       N/A     64  58  80 SE5       30.16S
MILLINOCKET    CLOUDY    59  57  93 CALM      30.18S FOG
HOULTON        FAIR      63  58  83 NE3       30.16S
PRESQUE ISLE   FAIR      64  59  83 VRB6      30.16F
FRENCHVILLE    FAIR      63  55  75 SE6       30.14F
CARIBOU        FAIR      63  57  81 SE7       30.14F
$$

NHZ002-005-008-009-011-012-014-211400-
NEW HAMPSHIRE

CITY           SKY/WX    TMP DP  RH WIND       PRES   REMARKS
PORTSMOUTH     MOSUNNY   66  60  81 CALM      30.15S
ROCHESTER      FAIR      65  61  87 CALM      30.16F
NASHUA         CLOUDY    62  61  96 N5        30.17S
MANCHESTER     FOG       61  59  93 N3        30.16R VSB 1/2
CONCORD        CLOUDY    59  58  96 CALM      30.17F FOG
LACONIA        CLOUDY    61  60  97 CALM      30.17F
PLYMOUTH       CLOUDY    57  56  97 CALM      30.17F
BERLIN         FOG       57  57 100 CALM      30.18F VSB 3/4
WHITEFIELD     FAIR      62  57  83 CALM      30.17F
JAFFREY        CLOUDY    61  60  97 CALM      30.18F
KEENE          CLOUDY   N/A N/A N/A S3        30.17F
LEBANON        CLOUDY    59  55  87 W3        30.15F FOG
MT WASHINGTON  FOG       45  45 100 SE8         N/A  VSB 1/8
$$

VTZ005-007-008-211400-
VERMONT

CITY           SKY/WX    TMP DP  RH WIND       PRES   REMARKS
ST JOHNSBURY     N/A     58  56  93 MISG      30.14F
MONTPELIER     FAIR      62  59  90 VRB7      30.18F
BURLINGTON     PTSUNNY   70  57  63 S9        30.09F
$$

MAZ007-012-024-CTZ003-RIZ002-NYZ038-NYZ072-211400-
SOUTHERN NEW ENGLAND AND NY

CITY           SKY/WX    TMP DP  RH WIND       PRES   REMARKS
BOSTON         CLOUDY    69  63  81 NE8       30.15S
WORCESTER      PTSUNNY   63  58  83 E7        30.17R
NANTUCKET      CLOUDY    66  66 100 NE9       30.11R
PROVIDENCE     CLOUDY    68  62  81 NE7       30.14S
HARTFORD       PTSUNNY   64  60  87 N5        30.14F
ALBANY         FAIR      70  58  65 S12       30.11S
NEW YORK CITY  FAIR      72  63  73 NE10      30.10F
$$

ANZ081-ANZ082-ANZ150-NHZ014-MEZ023>029-211400-
COASTAL MARINE OBSERVATIONS

STATION/POSITION TIME  TEMP    WIND        PRES    WAVE
                       AIR SEA DIR/SP/G            HT/PER
                 (UTC) (F)     (DEG/KT/KT) (MB)    (FT/S)
MOUNT DESERT ROC 1300   58      10/ 10/ 10 1021.5R
MATINICUS ROCK   1200   60      50/  7/  7 1020.9S
ISLE OF SHOALS   1200   63     350/  5/  5 1020.8R
JEFFREYS LEDGE   1236      69                N/A     4/ 8
$$

.............KEY..............
   WCI - WIND CHILL
   TC  - TEMPERATURE IN CELSIUS
   VSB - VISIBILITY IN MILES
   HX  - HEAT INDEX
   FAIR- INDICATES FEW OR NO CLOUDS BELOW 12,000 FT, WITH NO
         SIGNIFICANT WEATHER AND/OR OBSTRUCTIONS TO VISIBILITY.





USA.gov is the U.S. government's official web portal to all federal, state and local government web resources and services.